• In Belgien
  • Länderverzeichnis
  • Für 7 Tage
  • Wassertemperatur
  • Satellitenkarten
  • Wetterkarte
  • Widgets
  • user-avatar
    Anmelden

    Stündliche Wetter Albany

    Heute, 18 Oktober, Mittwoch

    Zeit Temperatur Niederschläge Wind Luftdruck Luftfeuchtigkeit
    00:00 +10°C° 0,1 mm 9 m/S 752 mmHg 79%
    01:00 +9°C° 0,1 mm 8 m/S 753 mmHg 77%
    02:00 +9°C° 0 mm 8 m/S 753 mmHg 74%
    03:00 +7°C° 0,1 mm 8 m/S 754 mmHg 74%
    04:00 +7°C° 0,1 mm 8 m/S 754 mmHg 74%
    05:00 +7°C° 0,1 mm 8 m/S 755 mmHg 74%
    06:00 +9°C° 0,1 mm 8 m/S 756 mmHg 70%
    07:00 +11°C° 0,1 mm 8 m/S 756 mmHg 66%
    08:00 +12°C° 0 mm 9 m/S 757 mmHg 62%
    09:00 +13°C° 0,1 mm 9 m/S 758 mmHg 58%
    10:00 +13°C° 0,1 mm 9 m/S 758 mmHg 55%
    11:00 +15°C° 0,1 mm 9 m/S 759 mmHg 51%
    12:00 +15°C° 0 mm 9 m/S 759 mmHg 52%
    13:00 +13°C° 0 mm 8 m/S 759 mmHg 53%
    14:00 +15°C° 0 mm 8 m/S 760 mmHg 54%
    15:00 +15°C° 0 mm 8 m/S 760 mmHg 55%
    16:00 +15°C° 0 mm 7 m/S 761 mmHg 56%
    17:00 +14°C° 0 mm 7 m/S 761 mmHg 57%
    18:00 +13°C° 0 mm 6 m/S 762 mmHg 61%
    19:00 +11°C° 0 mm 6 m/S 763 mmHg 66%
    20:00 +10°C° 0 mm 5 m/S 763 mmHg 70%
    21:00 +9°C° 0 mm 5 m/S 764 mmHg 73%
    22:00 +10°C° 0 mm 4 m/S 764 mmHg 75%
    23:00 +8°C° 0 mm 4 m/S 765 mmHg 77%

    Morgen, 19 Oktober, Donnerstag

    Zeit Temperatur Niederschläge Wind Luftdruck Luftfeuchtigkeit
    00:00 +8°C° 0 mm 4 m/S 765 mmHg 78%
    01:00 +8°C° 0 mm 4 m/S 765 mmHg 80%
    02:00 +9°C° 0 mm 3 m/S 765 mmHg 81%
    03:00 +8°C° 0 mm 3 m/S 765 mmHg 83%
    04:00 +8°C° 0 mm 3 m/S 766 mmHg 84%
    05:00 +8°C° 0 mm 3 m/S 766 mmHg 86%
    06:00 +10°C° 0 mm 2 m/S 766 mmHg 80%
    07:00 +13°C° 0 mm 2 m/S 767 mmHg 74%
    08:00 +15°C° 0 mm 2 m/S 767 mmHg 68%
    09:00 +16°C° 0 mm 2 m/S 767 mmHg 62%
    10:00 +19°C° 0 mm 1 m/S 767 mmHg 57%
    11:00 +20°C° 0 mm 1 m/S 767 mmHg 51%
    12:00 +20°C° 0 mm 2 m/S 767 mmHg 51%
    13:00 +20°C° 0 mm 2 m/S 767 mmHg 51%
    14:00 +20°C° 0 mm 3 m/S 767 mmHg 51%
    15:00 +19°C° 0 mm 3 m/S 767 mmHg 55%
    16:00 +18°C° 0 mm 4 m/S 767 mmHg 59%
    17:00 +18°C° 0 mm 4 m/S 767 mmHg 63%
    18:00 +15°C° 0 mm 4 m/S 767 mmHg 66%
    19:00 +14°C° 0 mm 4 m/S 768 mmHg 69%
    20:00 +13°C° 0 mm 5 m/S 768 mmHg 73%
    21:00 +13°C° 0 mm 5 m/S 768 mmHg 75%
    22:00 +13°C° 0 mm 5 m/S 769 mmHg 78%
    23:00 +12°C° 0 mm 5 m/S 769 mmHg 80%

    übermorgen, 20 Oktober, Freitag

    Zeit Temperatur Niederschläge Wind Luftdruck Luftfeuchtigkeit
    00:00 +12°C° 0 mm 5 m/S 769 mmHg 82%
    01:00 +12°C° 0 mm 5 m/S 768 mmHg 85%
    02:00 +12°C° 0 mm 5 m/S 768 mmHg 87%
    03:00 +12°C° 0 mm 5 m/S 768 mmHg 87%
    04:00 +12°C° 0 mm 5 m/S 768 mmHg 87%
    05:00 +10°C° 0 mm 5 m/S 768 mmHg 87%
    06:00 +13°C° 0 mm 5 m/S 768 mmHg 81%
    07:00 +14°C° 0 mm 6 m/S 768 mmHg 74%
    08:00 +16°C° 0 mm 6 m/S 768 mmHg 67%
    09:00 +19°C° 0 mm 6 m/S 768 mmHg 62%
    10:00 +20°C° 0 mm 6 m/S 768 mmHg 56%
    11:00 +22°C° 0 mm 6 m/S 768 mmHg 51%
    12:00 +23°C° 0 mm 6 m/S 767 mmHg 50%
    13:00 +23°C° 0 mm 6 m/S 767 mmHg 49%
    14:00 +24°C° 0 mm 6 m/S 767 mmHg 47%
    15:00 +23°C° 0 mm 6 m/S 766 mmHg 52%
    16:00 +22°C° 0 mm 6 m/S 766 mmHg 58%
    17:00 +20°C° 0 mm 7 m/S 766 mmHg 63%
    18:00 +18°C° 0 mm 7 m/S 767 mmHg 68%
    19:00 +16°C° 0 mm 6 m/S 767 mmHg 73%
    20:00 +15°C° 0 mm 6 m/S 767 mmHg 78%
    21:00 +14°C° 0 mm 6 m/S 768 mmHg 81%
    22:00 +14°C° 0 mm 6 m/S 768 mmHg 84%
    23:00 +14°C° 0 mm 6 m/S 768 mmHg 87%

    21 Oktober, Samstag

    Zeit Temperatur Niederschläge Wind Luftdruck Luftfeuchtigkeit
    00:00 +14°C° 0 mm 6 m/S 767 mmHg 89%
    01:00 +14°C° 0 mm 6 m/S 767 mmHg 90%
    02:00 +13°C° 0 mm 5 m/S 766 mmHg 91%
    03:00 +13°C° 0 mm 5 m/S 766 mmHg 91%
    04:00 +14°C° 0 mm 5 m/S 766 mmHg 91%
    05:00 +14°C° 0 mm 5 m/S 766 mmHg 91%
    06:00 +15°C° 0 mm 5 m/S 766 mmHg 84%
    07:00 +16°C° 0 mm 6 m/S 766 mmHg 77%
    08:00 +19°C° 0 mm 6 m/S 766 mmHg 70%
    09:00 +20°C° 0 mm 5 m/S 766 mmHg 63%
    10:00 +22°C° 0 mm 5 m/S 766 mmHg 56%
    11:00 +25°C° 0 mm 5 m/S 765 mmHg 49%
    12:00 +24°C° 0 mm 6 m/S 765 mmHg 48%
    13:00 +26°C° 0 mm 6 m/S 764 mmHg 47%
    14:00 +26°C° 0 mm 7 m/S 763 mmHg 47%
    15:00 +24°C° 0 mm 7 m/S 763 mmHg 53%
    16:00 +22°C° 0 mm 7 m/S 763 mmHg 59%
    17:00 +21°C° 0 mm 7 m/S 763 mmHg 66%
    18:00 +20°C° 0 mm 7 m/S 763 mmHg 67%
    19:00 +18°C° 0 mm 7 m/S 763 mmHg 69%
    20:00 +17°C° 0 mm 7 m/S 763 mmHg 71%
    21:00 +17°C° 0 mm 7 m/S 763 mmHg 73%
    22:00 +16°C° 0 mm 6 m/S 762 mmHg 75%
    23:00 +16°C° 0 mm 6 m/S 762 mmHg 77%

    22 Oktober, Sonntag

    Zeit Temperatur Niederschläge Wind Luftdruck Luftfeuchtigkeit
    00:00 +16°C° 0,4 mm 6 m/S 762 mmHg 82%
    01:00 +15°C° 0,4 mm 5 m/S 761 mmHg 87%
    02:00 +15°C° 0,4 mm 5 m/S 760 mmHg 91%
    03:00 +15°C° 0,4 mm 5 m/S 760 mmHg 92%
    04:00 +15°C° 0,4 mm 5 m/S 760 mmHg 93%
    05:00 +15°C° 0,4 mm 5 m/S 759 mmHg 94%
    06:00 +17°C° 0,9 mm 4 m/S 759 mmHg 92%
    07:00 +18°C° 0,9 mm 4 m/S 760 mmHg 90%
    08:00 +19°C° 0,9 mm 3 m/S 760 mmHg 88%
    09:00 +20°C° 0,4 mm 3 m/S 759 mmHg 81%
    10:00 +21°C° 0,4 mm 4 m/S 759 mmHg 74%
    11:00 +23°C° 0,4 mm 4 m/S 758 mmHg 66%
    12:00 +25°C° 0 mm 4 m/S 758 mmHg 62%
    13:00 +26°C° 0 mm 4 m/S 757 mmHg 57%
    14:00 +27°C° 0 mm 5 m/S 756 mmHg 52%
    15:00 +26°C° 0 mm 5 m/S 756 mmHg 57%
    16:00 +25°C° 0 mm 5 m/S 755 mmHg 63%
    17:00 +23°C° 0 mm 6 m/S 755 mmHg 68%
    18:00 +21°C° 0 mm 6 m/S 755 mmHg 73%
    19:00 +19°C° 0 mm 6 m/S 755 mmHg 78%
    20:00 +17°C° 0 mm 6 m/S 755 mmHg 83%
    21:00 +17°C° 0 mm 5 m/S 755 mmHg 82%
    22:00 +16°C° 0 mm 5 m/S 755 mmHg 81%
    23:00 +16°C° 0 mm 5 m/S 755 mmHg 81%

    23 Oktober, Montag

    Zeit Temperatur Niederschläge Wind Luftdruck Luftfeuchtigkeit
    00:00 +17°C° 0 mm 4 m/S 754 mmHg 83%
    01:00 +16°C° 0 mm 3 m/S 754 mmHg 86%
    02:00 +16°C° 0 mm 2 m/S 753 mmHg 89%
    03:00 +15°C° 0 mm 2 m/S 753 mmHg 90%
    04:00 +15°C° 0 mm 2 m/S 753 mmHg 92%
    05:00 +15°C° 0 mm 1 m/S 753 mmHg 93%
    06:00 +17°C° 0 mm 2 m/S 753 mmHg 87%
    07:00 +18°C° 0 mm 2 m/S 754 mmHg 82%
    08:00 +20°C° 0 mm 3 m/S 754 mmHg 76%
    09:00 +21°C° 0 mm 3 m/S 754 mmHg 72%
    10:00 +24°C° 0 mm 3 m/S 754 mmHg 68%
    11:00 +25°C° 0 mm 3 m/S 754 mmHg 64%
    12:00 +25°C° 0 mm 3 m/S 753 mmHg 64%
    13:00 +25°C° 0 mm 3 m/S 753 mmHg 64%
    14:00 +24°C° 0 mm 3 m/S 753 mmHg 64%
    15:00 +22°C° 0 mm 4 m/S 753 mmHg 67%
    16:00 +22°C° 0 mm 4 m/S 754 mmHg 71%
    17:00 +21°C° 0 mm 4 m/S 754 mmHg 75%
    18:00 +19°C° 0 mm 3 m/S 754 mmHg 81%
    19:00 +18°C° 0 mm 3 m/S 755 mmHg 88%
    20:00 +16°C° 0 mm 2 m/S 756 mmHg 94%
    21:00 +16°C° 0 mm 2 m/S 756 mmHg 93%
    22:00 +16°C° 0 mm 2 m/S 756 mmHg 92%
    23:00 +16°C° 0 mm 2 m/S 756 mmHg 92%
    Mehr zeigen